| time (UTC) | temp C | wind direction | speed KPH | gust KPH | rain 1hr cm | rain 24hr cm | rain mn cm | humidity % | barometer mb |
| 20260506231031 | 13 | 196 | 1.6 | 9.7 | 0.03 | 0.20 | 0.20 | 92 | 1005.8 |
| 20260506230531 | 13 | 196 | 1.6 | 8.0 | 0.05 | 0.20 | 0.20 | 92 | 1005.7 |
| 20260506230031 | 13 | 178 | 1.6 | 12.9 | 0.08 | 0.20 | 0.20 | 92 | 1005.7 |
| 20260506225531 | 13 | 190 | 0.0 | 12.9 | 0.10 | 0.20 | 0.20 | 92 | 1005.8 |
| 20260506225029 | 13 | 178 | 3.2 | 12.9 | 0.10 | 0.20 | 0.20 | 92 | 1005.7 |
| 20260506224529 | 13 | 202 | 1.6 | 11.3 | 0.10 | 0.20 | 0.20 | 92 | 1005.7 |
| 20260506224030 | 13 | 190 | 3.2 | 12.9 | 0.10 | 0.20 | 0.20 | 92 | 1005.6 |
| 20260506223528 | 13 | 199 | 1.6 | 12.9 | 0.10 | 0.20 | 0.20 | 92 | 1005.6 |
| 20260506223027 | 13 | 171 | 0.0 | 9.7 | 0.10 | 0.20 | 0.20 | 92 | 1005.6 |
| 20260506222527 | 13 | 188 | 1.6 | 8.0 | 0.08 | 0.18 | 0.18 | 92 | 1005.7 |
| 20260506222026 | 13 | 167 | 1.6 | 8.0 | 0.08 | 0.18 | 0.18 | 91 | 1005.7 |
| 20260506221525 | 13 | 199 | 1.6 | 8.0 | 0.10 | 0.18 | 0.18 | 91 | 1005.6 |
| 20260506221028 | 13 | 169 | 1.6 | 12.9 | 0.08 | 0.15 | 0.15 | 91 | 1005.7 |
| 20260506220523 | 13 | 193 | 0.0 | 12.9 | 0.08 | 0.15 | 0.15 | 91 | 1005.8 |
| 20260506220024 | 13 | 185 | 4.8 | 12.9 | 0.05 | 0.13 | 0.13 | 91 | 1005.8 |
| 20260506215525 | 14 | 211 | 0.0 | 11.3 | 0.03 | 0.10 | 0.10 | 91 | 1005.9 |
| 20260506215023 | 14 | 193 | 1.6 | 14.5 | 0.03 | 0.10 | 0.10 | 91 | 1006.0 |
| 20260506214520 | 14 | 197 | 3.2 | 14.5 | 0.03 | 0.10 | 0.10 | 90 | 1006.3 |
| 20260506214019 | 14 | 151 | 3.2 | 12.9 | 0.05 | 0.10 | 0.10 | 90 | 1006.1 |
| 20260506213518 | 14 | 162 | 1.6 | 8.0 | 0.05 | 0.10 | 0.10 | 90 | 1006.2 |
| 20260506213018 | 14 | 192 | 1.6 | 11.3 | 0.05 | 0.10 | 0.10 | 90 | 1006.2 |
| 20260506212516 | 14 | 181 | 3.2 | 11.3 | 0.05 | 0.10 | 0.10 | 90 | 1006.2 |
| 20260506212016 | 14 | 184 | 4.8 | 11.3 | 0.05 | 0.10 | 0.10 | 90 | 1006.3 |
| 20260506211514 | 14 | 198 | 3.2 | 9.7 | 0.03 | 0.08 | 0.08 | 89 | 1006.4 |
| 20260506211015 | 14 | 203 | 1.6 | 9.7 | 0.03 | 0.08 | 0.08 | 89 | 1006.4 |
| 20260506210517 | 14 | 178 | 1.6 | 9.7 | 0.03 | 0.08 | 0.08 | 89 | 1006.4 |
| 20260506210015 | 14 | 228 | 3.2 | 9.7 | 0.03 | 0.08 | 0.08 | 89 | 1006.4 |
| 20260506205512 | 15 | 167 | 3.2 | 9.7 | 0.03 | 0.08 | 0.08 | 89 | 1006.5 |
| 20260506205012 | 15 | 230 | 1.6 | 9.7 | 0.03 | 0.08 | 0.08 | 89 | 1006.5 |
| 20260506204512 | 15 | 206 | 4.8 | 9.7 | 0.03 | 0.08 | 0.08 | 88 | 1006.6 |
| 20260506204011 | 15 | 183 | 1.6 | 12.9 | 0.00 | 0.05 | 0.05 | 88 | 1006.5 |
| 20260506203517 | 15 | 201 | 4.8 | 17.7 | 0.00 | 0.05 | 0.05 | 87 | 1006.7 |
| 20260506203011 | 15 | 200 | 3.2 | 17.7 | 0.03 | 0.05 | 0.05 | 87 | 1006.6 |
| 20260506202510 | 15 | 187 | 3.2 | 11.3 | 0.03 | 0.05 | 0.05 | 87 | 1006.6 |
| 20260506202009 | 15 | 185 | 3.2 | 19.3 | 0.05 | 0.05 | 0.05 | 87 | 1006.7 |
| 20260506201509 | 15 | 172 | 3.2 | 19.3 | 0.05 | 0.05 | 0.05 | 87 | 1006.7 |
| 20260506201008 | 15 | 195 | 3.2 | 9.7 | 0.05 | 0.05 | 0.05 | 87 | 1006.7 |
| 20260506200512 | 15 | 207 | 3.2 | 16.1 | 0.05 | 0.05 | 0.05 | 87 | 1006.7 |
| 20260506200008 | 15 | 211 | 4.8 | 16.1 | 0.05 | 0.05 | 0.05 | 87 | 1006.7 |
| 20260506195507 | 15 | 196 | 3.2 | 9.7 | 0.05 | 0.05 | 0.05 | 87 | 1006.8 |
| 20260506195007 | 15 | 185 | 3.2 | 9.7 | 0.05 | 0.05 | 0.05 | 87 | 1007.0 |
| 20260506194514 | 15 | 185 | 4.8 | 8.0 | 0.05 | 0.05 | 0.05 | 87 | 1006.9 |
| 20260506194007 | 15 | 203 | 1.6 | 12.9 | 0.05 | 0.05 | 0.05 | 87 | 1006.8 |
| 20260506193505 | 15 | 189 | 3.2 | 12.9 | 0.05 | 0.05 | 0.05 | 86 | 1007.0 |
| 20260506193005 | 16 | 188 | 1.6 | 11.3 | 0.03 | 0.03 | 0.03 | 85 | 1006.9 |
| 20260506192509 | 16 | 182 | 4.8 | 14.5 | 0.03 | 0.03 | 0.03 | 84 | 1007.0 |
| 20260506192008 | 16 | 188 | 8.0 | 14.5 | 0.00 | 0.00 | 0.00 | 83 | 1007.0 |
| 20260506191505 | 16 | 202 | 3.2 | 12.9 | 0.00 | 0.00 | 0.00 | 82 | 1006.9 |
| 20260506191005 | 16 | 207 | 4.8 | 22.5 | 0.00 | 0.00 | 0.00 | 81 | 1007.0 |
| 20260506190505 | 17 | 197 | 6.4 | 22.5 | 0.00 | 0.00 | 0.00 | 79 | 1007.1 |
| 20260506190006 | 17 | 208 | 6.4 | 19.3 | 0.00 | 0.00 | 0.00 | 78 | 1007.1 |
| 20260506185503 | 17 | 160 | 4.8 | 19.3 | 0.00 | 0.00 | 0.00 | 77 | 1007.1 |
| 20260506185003 | 17 | 209 | 6.4 | 17.7 | 0.00 | 0.00 | 0.00 | 76 | 1007.2 |
| 20260506184503 | 17 | 187 | 8.0 | 17.7 | 0.00 | 0.00 | 0.00 | 76 | 1007.3 |
| 20260506184003 | 17 | 176 | 6.4 | 19.3 | 0.00 | 0.00 | 0.00 | 75 | 1007.2 |
| 20260506183503 | 18 | 176 | 6.4 | 19.3 | 0.00 | 0.00 | 0.00 | 75 | 1007.1 |
| 20260506183003 | 18 | 181 | 6.4 | 19.3 | 0.00 | 0.00 | 0.00 | 74 | 1007.2 |
| 20260506182502 | 18 | 278 | 4.8 | 19.3 | 0.00 | 0.00 | 0.00 | 74 | 1007.2 |
| 20260506182002 | 18 | 185 | 4.8 | 19.3 | 0.00 | 0.00 | 0.00 | 74 | 1007.5 |
| 20260506181502 | 18 | 192 | 4.8 | 12.9 | 0.00 | 0.00 | 0.00 | 73 | 1007.6 |
| 20260506181003 | 18 | 190 | 4.8 | 12.9 | 0.00 | 0.00 | 0.00 | 73 | 1007.5 |
| 20260506180504 | 18 | 218 | 3.2 | 16.1 | 0.00 | 0.00 | 0.00 | 73 | 1007.6 |
| 20260506180001 | 18 | 211 | 6.4 | 24.1 | 0.00 | 0.00 | 0.00 | 73 | 1007.5 |
| 20260506175559 | 18 | 165 | 11.3 | 24.1 | 0.00 | 0.00 | 0.00 | 72 | 1007.6 |
| 20260506175103 | 19 | 197 | 8.0 | 16.1 | 0.00 | 0.00 | 0.00 | 72 | 1007.6 |
| 20260506174601 | 19 | 266 | 6.4 | 17.7 | 0.00 | 0.00 | 0.00 | 72 | 1007.6 |
| 20260506174100 | 19 | 164 | 8.0 | 17.7 | 0.00 | 0.00 | 0.00 | 71 | 1007.8 |
| 20260506173558 | 20 | 195 | 4.8 | 17.7 | 0.00 | 0.00 | 0.00 | 71 | 1007.9 |
| 20260506173059 | 20 | 196 | 4.8 | 17.7 | 0.00 | 0.00 | 0.00 | 71 | 1007.9 |
| 20260506172557 | 20 | 197 | 8.0 | 17.7 | 0.00 | 0.00 | 0.00 | 70 | 1008.1 |
| 20260506172055 | 20 | 157 | 6.4 | 20.9 | 0.00 | 0.00 | 0.00 | 70 | 1008.4 |
| 20260506171601 | 20 | 202 | 8.0 | 20.9 | 0.00 | 0.00 | 0.00 | 70 | 1008.2 |
| 20260506171056 | 20 | 214 | 8.0 | 17.7 | 0.00 | 0.00 | 0.00 | 70 | 1008.2 |
| 20260506170554 | 20 | 169 | 4.8 | 17.7 | 0.00 | 0.00 | 0.00 | 70 | 1008.0 |
| 20260506170105 | 20 | 173 | 8.0 | 17.7 | 0.00 | 0.00 | 0.00 | 69 | 1007.8 |
| 20260506165555 | 20 | 176 | 4.8 | 16.1 | 0.00 | 0.00 | 0.00 | 70 | 1008.2 |
| 20260506165054 | 20 | 197 | 8.0 | 16.1 | 0.00 | 0.00 | 0.00 | 69 | 1008.1 |
| 20260506164557 | 20 | 204 | 4.8 | 16.1 | 0.00 | 0.00 | 0.00 | 69 | 1008.0 |
| 20260506164053 | 20 | 173 | 6.4 | 16.1 | 0.00 | 0.00 | 0.00 | 69 | 1008.1 |
| 20260506163551 | 20 | 180 | 4.8 | 17.7 | 0.00 | 0.00 | 0.00 | 70 | 1008.6 |
| 20260506163110 | 20 | 214 | 6.4 | 17.7 | 0.00 | 0.00 | 0.00 | 70 | 1008.5 |
| 20260506162550 | 20 | 201 | 4.8 | 12.9 | 0.00 | 0.00 | 0.00 | 70 | 1008.6 |
| 20260506162053 | 20 | 166 | 4.8 | 14.5 | 0.00 | 0.00 | 0.00 | 70 | 1008.6 |
| 20260506161550 | 20 | 164 | 6.4 | 14.5 | 0.00 | 0.00 | 0.00 | 70 | 1008.7 |
| 20260506161049 | 20 | 197 | 8.0 | 19.3 | 0.00 | 0.00 | 0.00 | 69 | 1008.7 |
| 20260506160548 | 20 | 199 | 6.4 | 19.3 | 0.00 | 0.00 | 0.00 | 69 | 1008.8 |
| 20260506160049 | 20 | 162 | 4.8 | 17.7 | 0.00 | 0.00 | 0.00 | 68 | 1009.0 |
| 20260506155549 | 20 | 185 | 6.4 | 14.5 | 0.00 | 0.00 | 0.00 | 68 | 1008.8 |
| 20260506155046 | 21 | 190 | 3.2 | 14.5 | 0.00 | 0.00 | 0.00 | 68 | 1008.8 |
| 20260506154606 | 21 | 198 | 4.8 | 14.5 | 0.00 | 0.00 | 0.00 | 67 | 1009.0 |
| 20260506154044 | 21 | 187 | 4.8 | 14.5 | 0.00 | 0.00 | 0.00 | 67 | 1009.0 |
| 20260506153544 | 20 | 198 | 4.8 | 14.5 | 0.00 | 0.00 | 0.00 | 68 | 1009.0 |
| 20260506153050 | 20 | 180 | 4.8 | 14.5 | 0.00 | 0.00 | 0.00 | 69 | 1009.1 |
| 20260506152542 | 20 | 218 | 1.6 | 12.9 | 0.00 | 0.00 | 0.00 | 70 | 1009.0 |
| 20260506152040 | 20 | 211 | 4.8 | 16.1 | 0.00 | 0.00 | 0.00 | 70 | 1009.1 |
| 20260506151540 | 20 | 192 | 4.8 | 16.1 | 0.00 | 0.00 | 0.00 | 69 | 1009.2 |
| 20260506151039 | 20 | 202 | 3.2 | 11.3 | 0.00 | 0.00 | 0.00 | 69 | 1009.1 |
| 20260506150538 | 20 | 166 | 3.2 | 16.1 | 0.00 | 0.00 | 0.00 | 70 | 1009.1 |
| 20260506150038 | 20 | 180 | 4.8 | 16.1 | 0.00 | 0.00 | 0.00 | 70 | 1009.3 |
| 20260506145536 | 20 | 204 | 3.2 | 9.7 | 0.00 | 0.00 | 0.00 | 71 | 1009.2 |
| 20260506145035 | 19 | 192 | 3.2 | 12.9 | 0.00 | 0.00 | 0.00 | 71 | 1009.3 |
| 20260506144535 | 19 | 196 | 4.8 | 17.7 | 0.00 | 0.00 | 0.00 | 71 | 1009.2 |
| 20260506144035 | 19 | 180 | 4.8 | 17.7 | 0.00 | 0.00 | 0.00 | 71 | 1009.2 |
| 20260506143539 | 19 | 169 | 4.8 | 14.5 | 0.00 | 0.00 | 0.00 | 71 | 1009.2 |
| 20260506143046 | 19 | 174 | 3.2 | 9.7 | 0.00 | 0.00 | 0.00 | 72 | 1009.3 |
| 20260506142536 | 19 | 185 | 4.8 | 14.5 | 0.00 | 0.00 | 0.00 | 72 | 1009.3 |
| 20260506142034 | 18 | 235 | 4.8 | 14.5 | 0.00 | 0.00 | 0.00 | 72 | 1009.3 |
| 20260506141536 | 19 | 173 | 3.2 | 14.5 | 0.00 | 0.00 | 0.00 | 71 | 1009.3 |
| 20260506141034 | 19 | 14 | 3.2 | 11.3 | 0.00 | 0.00 | 0.00 | 72 | 1009.4 |
| 20260506140530 | 18 | 189 | 3.2 | 11.3 | 0.00 | 0.00 | 0.00 | 74 | 1009.2 |
| 20260506140030 | 18 | 233 | 1.6 | 17.7 | 0.00 | 0.00 | 0.00 | 73 | 1009.0 |
| 20260506135528 | 18 | 188 | 4.8 | 17.7 | 0.00 | 0.00 | 0.00 | 73 | 1009.0 |
| 20260506135028 | 18 | 218 | 1.6 | 12.9 | 0.00 | 0.00 | 0.00 | 74 | 1009.2 |
| 20260506134527 | 18 | 197 | 4.8 | 12.9 | 0.00 | 0.00 | 0.00 | 73 | 1009.3 |
| 20260506134027 | 18 | 196 | 3.2 | 12.9 | 0.00 | 0.00 | 0.00 | 73 | 1009.3 |
| 20260506133525 | 18 | 185 | 4.8 | 11.3 | 0.00 | 0.00 | 0.00 | 74 | 1009.3 |
| 20260506133024 | 18 | 187 | 3.2 | 12.9 | 0.00 | 0.00 | 0.00 | 75 | 1009.4 |
| 20260506132524 | 18 | 165 | 3.2 | 12.9 | 0.00 | 0.00 | 0.00 | 76 | 1009.7 |
| 20260506132024 | 17 | 212 | 4.8 | 9.7 | 0.00 | 0.00 | 0.00 | 76 | 1009.7 |
| 20260506131523 | 17 | 183 | 4.8 | 9.7 | 0.00 | 0.00 | 0.00 | 76 | 1009.7 |
| 20260506131023 | 17 | 249 | 1.6 | 17.7 | 0.00 | 0.00 | 0.00 | 77 | 1009.6 |
| 20260506130519 | 17 | 197 | 3.2 | 17.7 | 0.00 | 0.00 | 0.00 | 77 | 1009.6 |
| 20260506130022 | 17 | 197 | 3.2 | 9.7 | 0.00 | 0.00 | 0.00 | 78 | 1009.7 |
| 20260506125517 | 17 | 200 | 1.6 | 9.7 | 0.00 | 0.00 | 0.00 | 79 | 1009.8 |
| 20260506125016 | 17 | 195 | 3.2 | 11.3 | 0.00 | 0.00 | 0.00 | 79 | 1009.6 |
| 20260506124516 | 17 | 204 | 4.8 | 11.3 | 0.00 | 0.00 | 0.00 | 79 | 1009.7 |
| 20260506124015 | 16 | 188 | 1.6 | 11.3 | 0.00 | 0.00 | 0.00 | 80 | 1009.6 |
| 20260506123514 | 16 | 211 | 3.2 | 11.3 | 0.00 | 0.00 | 0.00 | 80 | 1009.7 |
| 20260506123014 | 16 | 198 | 3.2 | 14.5 | 0.00 | 0.00 | 0.00 | 80 | 1009.6 |
| 20260506122513 | 16 | 184 | 4.8 | 14.5 | 0.00 | 0.00 | 0.00 | 81 | 1009.5 |
| 20260506122012 | 16 | 205 | 3.2 | 11.3 | 0.00 | 0.00 | 0.00 | 81 | 1009.6 |
| 20260506121511 | 16 | 141 | 1.6 | 11.3 | 0.00 | 0.00 | 0.00 | 82 | 1009.6 |
| 20260506121011 | 16 | 199 | 1.6 | 8.0 | 0.00 | 0.00 | 0.00 | 82 | 1009.8 |
| 20260506120511 | 15 | 189 | 1.6 | 11.3 | 0.00 | 0.00 | 0.00 | 83 | 1009.8 |
| 20260506120010 | 15 | 199 | 4.8 | 11.3 | 0.00 | 0.00 | 0.00 | 83 | 1009.9 |
| 20260506115510 | 15 | 180 | 1.6 | 11.3 | 0.00 | 0.00 | 0.00 | 84 | 1009.9 |
| 20260506115009 | 15 | 194 | 3.2 | 11.3 | 0.00 | 0.00 | 0.00 | 84 | 1010.0 |
| 20260506114511 | 15 | 194 | 3.2 | 8.0 | 0.00 | 0.00 | 0.00 | 84 | 1010.0 |
| 20260506114009 | 15 | 191 | 3.2 | 8.0 | 0.00 | 0.00 | 0.00 | 84 | 1010.1 |
| 20260506113509 | 15 | 189 | 3.2 | 9.7 | 0.00 | 0.00 | 0.00 | 84 | 1010.2 |
| 20260506113009 | 15 | 233 | 1.6 | 9.7 | 0.00 | 0.00 | 0.00 | 84 | 1010.1 |
| 20260506112511 | 15 | 221 | 3.2 | 9.7 | 0.00 | 0.00 | 0.00 | 85 | 1010.1 |
| 20260506112008 | 15 | 169 | 1.6 | 9.7 | 0.00 | 0.00 | 0.00 | 85 | 1010.1 |
| 20260506111508 | 15 | 207 | 1.6 | 9.7 | 0.00 | 0.00 | 0.00 | 85 | 1010.3 |
| 20260506111008 | 14 | 173 | 3.2 | 8.0 | 0.00 | 0.00 | 0.00 | 86 | 1010.2 |
| 20260506110510 | 14 | 199 | 1.6 | 6.4 | 0.00 | 0.00 | 0.00 | 86 | 1010.2 |
| 20260506110008 | 14 | 207 | 0.0 | 8.0 | 0.00 | 0.00 | 0.00 | 86 | 1010.2 |
| 20260506105507 | 14 | 187 | 3.2 | 8.0 | 0.00 | 0.00 | 0.00 | 86 | 1010.1 |
| 20260506105008 | 14 | 193 | 1.6 | 9.7 | 0.00 | 0.00 | 0.00 | 86 | 1010.1 |
| 20260506104506 | 14 | 164 | 1.6 | 9.7 | 0.00 | 0.00 | 0.00 | 86 | 1010.0 |
| 20260506104005 | 14 | 183 | 1.6 | 9.7 | 0.00 | 0.00 | 0.00 | 86 | 1009.9 |
| 20260506103505 | 14 | 164 | 1.6 | 9.7 | 0.00 | 0.00 | 0.00 | 86 | 1009.8 |
| 20260506103006 | 14 | 198 | 1.6 | 8.0 | 0.00 | 0.00 | 0.00 | 86 | 1009.8 |
| 20260506102505 | 14 | 206 | 0.0 | 8.0 | 0.00 | 0.00 | 0.00 | 86 | 1009.8 |
| 20260506102005 | 14 | 205 | 0.0 | 8.0 | 0.00 | 0.00 | 0.00 | 86 | 1009.9 |
| 20260506101506 | 14 | 195 | 1.6 | 9.7 | 0.00 | 0.00 | 0.00 | 87 | 1009.9 |
| 20260506101005 | 14 | 168 | 1.6 | 9.7 | 0.00 | 0.00 | 0.00 | 87 | 1009.9 |
| 20260506100505 | 14 | 197 | 3.2 | 12.9 | 0.00 | 0.00 | 0.00 | 87 | 1009.8 |
| 20260506100005 | 14 | 197 | 1.6 | 12.9 | 0.00 | 0.00 | 0.00 | 87 | 1009.8 |
| 20260506095505 | 14 | 201 | 3.2 | 8.0 | 0.00 | 0.00 | 0.00 | 87 | 1009.7 |
| 20260506095004 | 14 | 195 | 0.0 | 12.9 | 0.00 | 0.00 | 0.00 | 87 | 1009.7 |
| 20260506094504 | 14 | 190 | 1.6 | 12.9 | 0.00 | 0.00 | 0.00 | 87 | 1009.8 |
| 20260506094003 | 14 | 221 | 1.6 | 9.7 | 0.00 | 0.00 | 0.00 | 87 | 1009.7 |
| 20260506093502 | 14 | 197 | 1.6 | 8.0 | 0.00 | 0.00 | 0.00 | 87 | 1009.7 |
| 20260506093004 | 14 | 209 | 1.6 | 8.0 | 0.00 | 0.00 | 0.00 | 86 | 1009.7 |
| 20260506092502 | 14 | 182 | 1.6 | 6.4 | 0.00 | 0.00 | 0.00 | 86 | 1009.8 |
| 20260506092002 | 14 | 155 | 0.0 | 9.7 | 0.00 | 0.00 | 0.00 | 86 | 1009.8 |
| 20260506091505 | 14 | 206 | 4.8 | 9.7 | 0.00 | 0.00 | 0.00 | 86 | 1009.8 |
| 20260506091000 | 14 | 204 | 1.6 | 8.0 | 0.00 | 0.00 | 0.00 | 86 | 1009.8 |
| 20260506090501 | 14 | 214 | 3.2 | 8.0 | 0.00 | 0.00 | 0.00 | 86 | 1009.8 |
| 20260506090100 | 14 | 190 | 3.2 | 9.7 | 0.00 | 0.00 | 0.00 | 85 | 1009.8 |
| 20260506090002 | 14 | 178 | 3.2 | 9.7 | 0.00 | 0.00 | 0.00 | 85 | 1009.8 |
| 20260506085600 | 14 | 216 | 3.2 | 11.3 | 0.00 | 0.00 | 0.00 | 85 | 1009.9 |
| 20260506085100 | 15 | 202 | 1.6 | 11.3 | 0.00 | 0.00 | 0.00 | 85 | 1010.0 |
| 20260506084602 | 15 | 195 | 4.8 | 11.3 | 0.00 | 0.00 | 0.00 | 85 | 1010.0 |
| 20260506084103 | 15 | 182 | 3.2 | 11.3 | 0.00 | 0.00 | 0.00 | 85 | 1010.0 |
| 20260506083558 | 15 | 237 | 3.2 | 9.7 | 0.00 | 0.00 | 0.00 | 85 | 1010.0 |
| 20260506083104 | 15 | 205 | 1.6 | 11.3 | 0.00 | 0.00 | 0.00 | 85 | 1010.0 |
| 20260506082600 | 15 | 188 | 1.6 | 16.1 | 0.00 | 0.00 | 0.00 | 84 | 1010.1 |
| 20260506082056 | 15 | 180 | 4.8 | 16.1 | 0.00 | 0.00 | 0.00 | 84 | 1010.1 |
| 20260506081556 | 15 | 188 | 3.2 | 14.5 | 0.00 | 0.00 | 0.00 | 84 | 1010.0 |
| 20260506081056 | 15 | 195 | 1.6 | 14.5 | 0.00 | 0.00 | 0.00 | 84 | 1010.1 |
| 20260506080556 | 15 | 209 | 3.2 | 14.5 | 0.00 | 0.00 | 0.00 | 84 | 1010.0 |
| 20260506073053 | 15 | 220 | 3.2 | 9.7 | 0.00 | 0.00 | 0.00 | 83 | 1009.9 |
| 20260506072553 | 15 | 199 | 1.6 | 8.0 | 0.00 | 0.00 | 0.00 | 83 | 1010.0 |
| 20260506072052 | 15 | 180 | 1.6 | 8.0 | 0.00 | 0.00 | 0.00 | 83 | 1009.9 |
| 20260506071551 | 15 | 202 | 1.6 | 12.9 | 0.00 | 0.00 | 0.00 | 83 | 1009.9 |
| 20260506071051 | 15 | 186 | 1.6 | 12.9 | 0.00 | 0.00 | 0.00 | 83 | 1009.8 |
| 20260506070551 | 15 | 203 | 3.2 | 12.9 | 0.00 | 0.00 | 0.00 | 83 | 1009.8 |
| 20260506062049 | 15 | 176 | 3.2 | 14.5 | 0.00 | 0.00 | 0.00 | 82 | 1009.8 |
| 20260506061549 | 15 | 179 | 1.6 | 14.5 | 0.00 | 0.00 | 0.00 | 82 | 1009.8 |
| 20260506061049 | 15 | 188 | 4.8 | 14.5 | 0.00 | 0.00 | 0.00 | 82 | 1009.8 |
| 20260506060549 | 15 | 203 | 4.8 | 17.7 | 0.00 | 0.00 | 0.00 | 81 | 1009.8 |
| 20260506051043 | 15 | 184 | 3.2 | 11.3 | 0.00 | 0.00 | 0.00 | 81 | 1010.2 |
| 20260506050542 | 15 | 190 | 4.8 | 9.7 | 0.00 | 0.00 | 0.00 | 81 | 1010.4 |
| 20260506045041 | 15 | 212 | 3.2 | 9.7 | 0.00 | 0.00 | 0.00 | 80 | 1010.5 |
| 20260506044546 | 15 | 182 | 3.2 | 11.3 | 0.00 | 0.00 | 0.00 | 80 | 1010.6 |
| 20260506044042 | 15 | 183 | 1.6 | 11.3 | 0.00 | 0.00 | 0.00 | 79 | 1010.6 |
| 20260506043539 | 15 | 197 | 3.2 | 9.7 | 0.00 | 0.00 | 0.00 | 79 | 1010.6 |
| 20260506043039 | 15 | 212 | 3.2 | 9.7 | 0.00 | 0.00 | 0.00 | 79 | 1010.5 |
| 20260506042539 | 15 | 194 | 3.2 | 8.0 | 0.00 | 0.00 | 0.00 | 79 | 1010.6 |
| 20260506042037 | 15 | 216 | 1.6 | 12.9 | 0.00 | 0.00 | 0.00 | 78 | 1010.5 |
| 20260506041536 | 15 | 202 | 3.2 | 12.9 | 0.00 | 0.00 | 0.00 | 78 | 1010.4 |
| 20260506041036 | 15 | 187 | 1.6 | 11.3 | 0.00 | 0.00 | 0.00 | 77 | 1010.4 |
| 20260506040534 | 16 | 190 | 3.2 | 11.3 | 0.00 | 0.00 | 0.00 | 76 | 1010.3 |
| 20260506040051 | 16 | 170 | 0.0 | 11.3 | 0.00 | 0.00 | 0.00 | 76 | 1010.3 |
| 20260506035532 | 16 | 176 | 4.8 | 11.3 | 0.00 | 0.00 | 0.00 | 76 | 1010.2 |
| 20260506035032 | 16 | 173 | 3.2 | 9.7 | 0.00 | 0.00 | 0.00 | 75 | 1010.2 |
| 20260506034534 | 16 | 195 | 1.6 | 9.7 | 0.00 | 0.00 | 0.00 | 75 | 1010.3 |
| 20260506034032 | 16 | 196 | 3.2 | 11.3 | 0.00 | 0.00 | 0.00 | 75 | 1010.1 |
| 20260506033531 | 16 | 185 | 3.2 | 11.3 | 0.00 | 0.00 | 0.00 | 75 | 1010.2 |
| 20260506033031 | 16 | 185 | 1.6 | 9.7 | 0.00 | 0.00 | 0.00 | 75 | 1010.0 |
| 20260506032531 | 16 | 220 | 3.2 | 8.0 | 0.00 | 0.00 | 0.00 | 75 | 1010.1 |
| 20260506032033 | 16 | 188 | 1.6 | 6.4 | 0.00 | 0.00 | 0.00 | 75 | 1010.1 |
| 20260506031544 | 16 | 184 | 0.0 | 8.0 | 0.00 | 0.00 | 0.00 | 75 | 1010.0 |
| 20260506031031 | 15 | 187 | 1.6 | 14.5 | 0.00 | 0.00 | 0.00 | 75 | 1010.1 |
| 20260506030530 | 15 | 223 | 1.6 | 14.5 | 0.00 | 0.00 | 0.00 | 75 | 1010.2 |
| 20260506030030 | 15 | 196 | 3.2 | 8.0 | 0.00 | 0.00 | 0.00 | 75 | 1010.2 |
| 20260506025530 | 15 | 203 | 1.6 | 9.7 | 0.00 | 0.00 | 0.00 | 75 | 1010.1 |
| 20260506025030 | 15 | 181 | 1.6 | 9.7 | 0.00 | 0.00 | 0.00 | 74 | 1010.2 |
| 20260506024530 | 15 | 184 | 0.0 | 8.0 | 0.00 | 0.00 | 0.00 | 74 | 1010.2 |
| 20260506024031 | 15 | 201 | 1.6 | 6.4 | 0.00 | 0.00 | 0.00 | 73 | 1010.2 |
| 20260506023531 | 16 | 185 | 3.2 | 8.0 | 0.00 | 0.00 | 0.00 | 73 | 1010.1 |
| 20260506023030 | 16 | 183 | 3.2 | 8.0 | 0.00 | 0.00 | 0.00 | 73 | 1010.1 |
| 20260506022529 | 15 | 216 | 0.0 | 8.0 | 0.00 | 0.00 | 0.00 | 73 | 1010.0 |
| 20260506022029 | 16 | 228 | 0.0 | 8.0 | 0.00 | 0.00 | 0.00 | 72 | 1010.0 |
| 20260506021529 | 16 | 183 | 0.0 | 11.3 | 0.00 | 0.00 | 0.00 | 72 | 1010.0 |
| 20260506021031 | 16 | 172 | 3.2 | 11.3 | 0.00 | 0.00 | 0.00 | 72 | 1010.0 |
| 20260506020532 | 16 | 190 | 1.6 | 8.0 | 0.00 | 0.00 | 0.00 | 71 | 1010.0 |
| 20260506020028 | 16 | 185 | 3.2 | 9.7 | 0.00 | 0.00 | 0.00 | 71 | 1010.0 |
| 20260506015528 | 16 | 196 | 4.8 | 12.9 | 0.00 | 0.00 | 0.00 | 71 | 1010.0 |
| 20260506015028 | 16 | 212 | 3.2 | 12.9 | 0.00 | 0.00 | 0.00 | 71 | 1010.0 |
| 20260506014531 | 16 | 182 | 1.6 | 12.9 | 0.00 | 0.00 | 0.00 | 71 | 1009.9 |
| 20260506014027 | 16 | 193 | 1.6 | 11.3 | 0.00 | 0.00 | 0.00 | 72 | 1009.8 |
| 20260506013527 | 16 | 201 | 3.2 | 11.3 | 0.00 | 0.00 | 0.00 | 71 | 1009.8 |
| 20260506013027 | 16 | 202 | 1.6 | 11.3 | 0.00 | 0.00 | 0.00 | 72 | 1009.8 |
| 20260506012527 | 16 | 213 | 3.2 | 11.3 | 0.00 | 0.00 | 0.00 | 72 | 1009.9 |
| 20260506012029 | 16 | 202 | 3.2 | 9.7 | 0.00 | 0.00 | 0.00 | 72 | 1009.8 |
| 20260506011528 | 16 | 190 | 1.6 | 8.0 | 0.00 | 0.00 | 0.00 | 73 | 1009.7 |
| 20260506011026 | 16 | 171 | 1.6 | 8.0 | 0.00 | 0.00 | 0.00 | 73 | 1009.7 |
| 20260506010526 | 16 | 165 | 1.6 | 8.0 | 0.00 | 0.00 | 0.00 | 73 | 1009.6 |
| 20260506010026 | 16 | 195 | 3.2 | 9.7 | 0.00 | 0.00 | 0.00 | 73 | 1009.6 |
| 20260506005526 | 16 | 185 | 4.8 | 14.5 | 0.00 | 0.00 | 0.00 | 72 | 1009.4 |
| 20260506005024 | 16 | 180 | 4.8 | 14.5 | 0.00 | 0.00 | 0.00 | 73 | 1009.3 |
| 20260506004527 | 16 | 176 | 3.2 | 14.5 | 0.00 | 0.00 | 0.00 | 73 | 1009.3 |
| 20260506004029 | 16 | 216 | 1.6 | 14.5 | 0.00 | 0.00 | 0.00 | 73 | 1009.4 |
| 20260506003524 | 16 | 207 | 3.2 | 11.3 | 0.00 | 0.00 | 0.00 | 73 | 1009.3 |
| 20260506003024 | 16 | 190 | 1.6 | 6.4 | 0.00 | 0.00 | 0.00 | 73 | 1009.3 |
| 20260506002523 | 16 | 202 | 1.6 | 6.4 | 0.00 | 0.00 | 0.00 | 73 | 1009.2 |
| 20260506002024 | 16 | 202 | 1.6 | 6.4 | 0.00 | 0.00 | 0.00 | 73 | 1009.1 |
| 20260506001524 | 16 | 197 | 1.6 | 8.0 | 0.00 | 0.00 | 0.00 | 73 | 1009.1 |
| 20260506001024 | 16 | 195 | 3.2 | 8.0 | 0.00 | 0.00 | 0.00 | 72 | 1009.0 |
| 20260506000523 | 16 | 215 | 0.0 | 6.4 | 0.00 | 0.00 | 0.00 | 72 | 1009.0 |
| 20260506000024 | 16 | 206 | 1.6 | 6.4 | 0.00 | 0.00 | 0.00 | 72 | 1008.8 |
| 20260505235525 | 16 | 211 | 1.6 | 6.4 | 0.00 | 0.00 | 0.00 | 72 | 1008.5 |
| 20260505235022 | 16 | 204 | 1.6 | 6.4 | 0.00 | 0.00 | 0.00 | 73 | 1008.5 |
| 20260505234522 | 16 | 214 | 1.6 | 6.4 | 0.00 | 0.00 | 0.00 | 72 | 1008.3 |
| 20260505234021 | 16 | 204 | 0.0 | 12.9 | 0.00 | 0.00 | 0.00 | 72 | 1008.2 |
| 20260505233521 | 16 | 197 | 3.2 | 12.9 | 0.00 | 0.00 | 0.00 | 71 | 1008.1 |
| 20260505233022 | 16 | 176 | 3.2 | 12.9 | 0.00 | 0.00 | 0.00 | 71 | 1008.0 |
| 20260505232521 | 16 | 190 | 3.2 | 11.3 | 0.00 | 0.00 | 0.00 | 71 | 1008.1 |
| 20260505232022 | 16 | 205 | 3.2 | 14.5 | 0.00 | 0.00 | 0.00 | 71 | 1008.0 |
| 20260505231528 | 16 | 186 | 4.8 | 14.5 | 0.00 | 0.00 | 0.00 | 70 | 1007.9 |